• In Hungary
  • List of Countries
  • For 7 days
  • Water Temperature
  • Satellite Maps
  • Weather Map
  • News
  • Weather Widgets
  • user-avatar
    Login

    Hourly Weather Salidovka

    Today, 17 August, Friday

    Time Temperature Precipitation Wind Pressure Humidity
    00:00 +21°C° 0 mm 2 mps 748 mmHg 43%
    01:00 +21°C° 0 mm 2 mps 748 mmHg 43%
    02:00 +21°C° 0 mm 2 mps 748 mmHg 43%
    03:00 +20°C° 0 mm 2 mps 748 mmHg 43%
    04:00 +20°C° 0 mm 2 mps 747 mmHg 43%
    05:00 +21°C° 0 mm 3 mps 747 mmHg 42%
    06:00 +21°C° 0 mm 3 mps 747 mmHg 41%
    07:00 +22°C° 0 mm 3 mps 748 mmHg 41%
    08:00 +25°C° 0 mm 3 mps 747 mmHg 36%
    09:00 +27°C° 0 mm 4 mps 747 mmHg 31%
    10:00 +29°C° 0 mm 4 mps 747 mmHg 26%
    11:00 +30°C° 0 mm 4 mps 747 mmHg 25%
    12:00 +32°C° 0 mm 4 mps 747 mmHg 23%
    13:00 +33°C° 0 mm 4 mps 746 mmHg 22%
    14:00 +33°C° 0 mm 4 mps 746 mmHg 22%
    15:00 +33°C° 0 mm 4 mps 746 mmHg 23%
    16:00 +33°C° 0 mm 4 mps 745 mmHg 24%
    17:00 +32°C° 0 mm 4 mps 745 mmHg 33%
    18:00 +29°C° 0 mm 4 mps 745 mmHg 42%
    19:00 +27°C° 0 mm 4 mps 745 mmHg 51%
    20:00 +25°C° 0.3 mm 5 mps 745 mmHg 61%
    21:00 +22°C° 0.3 mm 5 mps 745 mmHg 70%
    22:00 +20°C° 0.3 mm 5 mps 745 mmHg 79%
    23:00 +19°C° 0 mm 5 mps 745 mmHg 80%

    Tomorrow, 18 August, Saturday

    Time Temperature Precipitation Wind Pressure Humidity
    00:00 +17°C° 0 mm 5 mps 745 mmHg 81%
    01:00 +17°C° 0 mm 5 mps 745 mmHg 81%
    02:00 +16°C° 0 mm 5 mps 745 mmHg 82%
    03:00 +16°C° 0 mm 5 mps 745 mmHg 82%
    04:00 +15°C° 0 mm 5 mps 745 mmHg 82%
    05:00 +15°C° 0.1 mm 5 mps 745 mmHg 81%
    06:00 +15°C° 0.1 mm 5 mps 745 mmHg 80%
    07:00 +16°C° 0.1 mm 5 mps 745 mmHg 79%
    08:00 +16°C° 0.2 mm 5 mps 745 mmHg 75%
    09:00 +17°C° 0.2 mm 5 mps 746 mmHg 72%
    10:00 +19°C° 0.2 mm 5 mps 746 mmHg 68%
    11:00 +20°C° 0.1 mm 5 mps 746 mmHg 64%
    12:00 +21°C° 0.1 mm 5 mps 746 mmHg 60%
    13:00 +22°C° 0.1 mm 5 mps 745 mmHg 55%
    14:00 +22°C° 0 mm 5 mps 745 mmHg 53%
    15:00 +22°C° 0 mm 5 mps 745 mmHg 51%
    16:00 +23°C° 0 mm 5 mps 745 mmHg 49%
    17:00 +22°C° 0 mm 5 mps 745 mmHg 51%
    18:00 +21°C° 0 mm 5 mps 745 mmHg 52%
    19:00 +20°C° 0 mm 4 mps 745 mmHg 54%
    20:00 +19°C° 0 mm 4 mps 745 mmHg 58%
    21:00 +18°C° 0 mm 4 mps 746 mmHg 62%
    22:00 +17°C° 0 mm 4 mps 746 mmHg 66%
    23:00 +15°C° 0 mm 4 mps 746 mmHg 67%

    Day after tomorrow, 19 August, Sunday

    Time Temperature Precipitation Wind Pressure Humidity
    00:00 +15°C° 0 mm 4 mps 746 mmHg 69%
    01:00 +14°C° 0 mm 3 mps 746 mmHg 71%
    02:00 +14°C° 0 mm 4 mps 746 mmHg 71%
    03:00 +13°C° 0 mm 4 mps 746 mmHg 71%
    04:00 +13°C° 0 mm 4 mps 746 mmHg 70%
    05:00 +13°C° 0 mm 5 mps 746 mmHg 68%
    06:00 +14°C° 0 mm 5 mps 746 mmHg 67%
    07:00 +14°C° 0 mm 6 mps 746 mmHg 65%
    08:00 +16°C° 0 mm 6 mps 747 mmHg 58%
    09:00 +18°C° 0 mm 7 mps 747 mmHg 52%
    10:00 +20°C° 0 mm 7 mps 747 mmHg 46%
    11:00 +21°C° 0 mm 7 mps 747 mmHg 43%
    12:00 +22°C° 0 mm 7 mps 746 mmHg 40%
    13:00 +22°C° 0 mm 7 mps 746 mmHg 38%
    14:00 +22°C° 0 mm 6 mps 746 mmHg 38%
    15:00 +22°C° 0 mm 6 mps 746 mmHg 39%
    16:00 +22°C° 0 mm 6 mps 746 mmHg 39%
    17:00 +21°C° 0 mm 5 mps 746 mmHg 43%
    18:00 +21°C° 0 mm 5 mps 747 mmHg 46%
    19:00 +20°C° 0 mm 4 mps 747 mmHg 50%
    20:00 +19°C° 0 mm 4 mps 747 mmHg 55%
    21:00 +17°C° 0 mm 4 mps 747 mmHg 60%
    22:00 +15°C° 0 mm 4 mps 747 mmHg 64%
    23:00 +14°C° 0 mm 4 mps 747 mmHg 66%

    20 August, Monday

    Time Temperature Precipitation Wind Pressure Humidity
    00:00 +14°C° 0 mm 4 mps 747 mmHg 67%
    01:00 +13°C° 0 mm 4 mps 747 mmHg 68%
    02:00 +12°C° 0 mm 3 mps 748 mmHg 70%
    03:00 +12°C° 0 mm 3 mps 748 mmHg 72%
    04:00 +11°C° 0 mm 3 mps 748 mmHg 73%
    05:00 +11°C° 0 mm 3 mps 748 mmHg 72%
    06:00 +12°C° 0 mm 4 mps 748 mmHg 70%
    07:00 +12°C° 0 mm 4 mps 749 mmHg 68%
    08:00 +14°C° 0 mm 4 mps 749 mmHg 61%
    09:00 +15°C° 0 mm 5 mps 749 mmHg 55%
    10:00 +17°C° 0 mm 5 mps 749 mmHg 48%
    11:00 +19°C° 0 mm 5 mps 749 mmHg 45%
    12:00 +20°C° 0 mm 5 mps 748 mmHg 42%
    13:00 +21°C° 0 mm 4 mps 748 mmHg 39%
    14:00 +21°C° 0 mm 4 mps 748 mmHg 38%
    15:00 +21°C° 0 mm 5 mps 748 mmHg 37%
    16:00 +22°C° 0 mm 5 mps 748 mmHg 37%
    17:00 +21°C° 0 mm 4 mps 748 mmHg 40%
    18:00 +20°C° 0 mm 3 mps 748 mmHg 44%
    19:00 +19°C° 0 mm 3 mps 748 mmHg 48%
    20:00 +18°C° 0 mm 3 mps 749 mmHg 51%
    21:00 +17°C° 0 mm 3 mps 749 mmHg 55%
    22:00 +16°C° 0 mm 2 mps 749 mmHg 59%
    23:00 +15°C° 0 mm 2 mps 749 mmHg 63%

    21 August, Tuesday

    Time Temperature Precipitation Wind Pressure Humidity
    00:00 +14°C° 0 mm 2 mps 749 mmHg 67%
    01:00 +14°C° 0 mm 2 mps 749 mmHg 70%
    02:00 +13°C° 0 mm 2 mps 749 mmHg 72%
    03:00 +13°C° 0 mm 2 mps 750 mmHg 73%
    04:00 +13°C° 0 mm 2 mps 750 mmHg 75%
    05:00 +13°C° 0 mm 2 mps 750 mmHg 72%
    06:00 +14°C° 0 mm 2 mps 750 mmHg 69%
    07:00 +15°C° 0 mm 2 mps 750 mmHg 67%
    08:00 +17°C° 0 mm 2 mps 750 mmHg 60%
    09:00 +18°C° 0 mm 2 mps 750 mmHg 53%
    10:00 +20°C° 0 mm 3 mps 750 mmHg 46%
    11:00 +21°C° 0 mm 3 mps 750 mmHg 43%
    12:00 +24°C° 0 mm 3 mps 750 mmHg 41%
    13:00 +25°C° 0 mm 3 mps 750 mmHg 38%
    14:00 +25°C° 0 mm 3 mps 750 mmHg 36%
    15:00 +26°C° 0 mm 3 mps 749 mmHg 35%
    16:00 +26°C° 0 mm 4 mps 749 mmHg 33%
    17:00 +25°C° 0 mm 3 mps 749 mmHg 37%
    18:00 +24°C° 0 mm 2 mps 749 mmHg 40%
    19:00 +23°C° 0 mm 2 mps 749 mmHg 43%
    20:00 +21°C° 0 mm 2 mps 749 mmHg 44%
    21:00 +20°C° 0 mm 2 mps 749 mmHg 46%
    22:00 +20°C° 0 mm 1 mps 749 mmHg 47%
    23:00 +19°C° 0 mm 2 mps 749 mmHg 47%

    22 August, Wednesday

    Time Temperature Precipitation Wind Pressure Humidity
    00:00 +19°C° 0 mm 2 mps 749 mmHg 47%
    01:00 +18°C° 0 mm 2 mps 749 mmHg 48%
    02:00 +18°C° 0 mm 2 mps 749 mmHg 48%
    03:00 +18°C° 0 mm 2 mps 749 mmHg 48%
    04:00 +17°C° 0 mm 2 mps 749 mmHg 48%
    05:00 +18°C° 0 mm 3 mps 749 mmHg 47%
    06:00 +19°C° 0 mm 3 mps 749 mmHg 46%
    07:00 +19°C° 0 mm 3 mps 749 mmHg 45%
    08:00 +22°C° 0 mm 4 mps 749 mmHg 39%
    09:00 +25°C° 0 mm 5 mps 748 mmHg 34%
    10:00 +27°C° 0 mm 5 mps 748 mmHg 28%
    11:00 +28°C° 0 mm 6 mps 748 mmHg 27%
    12:00 +29°C° 0 mm 6 mps 747 mmHg 25%
    13:00 +29°C° 0 mm 6 mps 747 mmHg 23%
    14:00 +29°C° 0 mm 6 mps 747 mmHg 24%
    15:00 +29°C° 0 mm 6 mps 746 mmHg 24%
    16:00 +29°C° 0 mm 6 mps 746 mmHg 25%
    17:00 +27°C° 0 mm 5 mps 746 mmHg 30%
    18:00 +26°C° 0 mm 5 mps 746 mmHg 35%
    19:00 +23°C° 0 mm 5 mps 746 mmHg 40%
    20:00 +22°C° 0.4 mm 4 mps 746 mmHg 50%
    21:00 +20°C° 0.4 mm 3 mps 746 mmHg 60%
    22:00 +19°C° 0.4 mm 2 mps 745 mmHg 71%
    23:00 +19°C° 0.2 mm 2 mps 745 mmHg 73%
    Show more